NOAA 16 DEB

Satellite information

Favourite Embed

Satellite Type and Status

DEBRISIN ORBIT

Key statistics

Satellite NOAA 16 DEB at a glance.

Uptime

9215

Days in orbit

Revolutions

≈ 14.6

Per day

Orbit

SSO

Sun Synchronous Orbit

Inclination

99.0

Latest

Satellite identification and parameters

Extended collection of information and parameters for NOAA 16 DEB.

Object identification

Identified? True

Debris? True

Object name: NOAA 16 DEB

International designator: 2000-055LA

Object number (NORAD): 41421

Object ID (CCSDS): 41421

Country: UNITED STATES OF AMERICA (US)

Current information (Y/N): Y

RCS size: SMALL

Orbital parameters

Period: 98.378 minutes

Inclination: 98.954 deg

SMA: 7059.273 km

Apoapsis: 703.215 km

Periapsis: 659.061 km

RAAN: 194.7694 deg

Eccentricy: 0.0031274

Argument of periapsis: 277.2925 deg

Mean anomaly: 82.472 deg

Mean motion: 14.63736082 rev/day

Mean motion (dot): 0.0002363 rev/day2

B* drag term: 0.0044995177 1/REarth

Two-line elements (TLE)

Creation date: Dec. 12, 2025, 10:14 a.m.

Reference frame: TEME

Reference center: EARTH

Epoch: Dec. 12, 2025, 12:57 a.m. UTC

TLE line 0: 0 NOAA 16 DEB

TLE line 1: 1 41421U 00055LA 25346.04026637 .00023630 00000-0 44995-2 0 9997

TLE line 2: 2 41421 98.9540 194.7694 0031274 277.2925 82.4720 14.63736082511325

Live tracking on map

Real-time ground track for satellite NOAA 16 DEB.

In-orbit conjunctions

A list of the most updated potential collisions computed for object NOAA 16 DEB.

Target Orbit TCA Probability of collision Miss distance Type
COSMOS 2251 DEB LEO 2025-09-03 15:35:42 0.0002355684 5.0 (m) DEBRIS
COSMOS 2251 DEB LEO 2025-05-31 06:37:50 0.0008288287 56.0 (m) DEBRIS
CZ-6A DEB LEO 2024-12-02 10:26:53 0.0002045211 416.0 (m) DEBRIS
SL-8 R/B LEO 2024-07-16 23:50:05 0.0001222685 741.0 (m) ROCKET BODY

Associated space launch

The NOAA K, L and M POES satellites begin the fifth generation of improved environmental monitoring in support of NOAA missions. The instrument payload has significant improvements and additions/deletions. The instrument changes have effected the spacecraft subsystems and data formats.

NOAA 16 DEB was lifted into orbit during the mission ‘Titan II SLV | NOAA 16’, on board a Titan II SLV space rocket.

The launch took place on Sept. 21, 2000, 10:22 a.m. from Space Launch Complex 4W.

For more information about the launch, click the button.

Launch to space Titan II SLV | NOAA 16
Titan II SLV | NOAA 16

Agency: N/A

Status: Launch Successful

Launch date: Sept. 21, 2000, 10:22 a.m. UTC

Rocket: Titan II SLV

Launch pad: Space Launch Complex 4W

Location: Vandenberg SFB, CA, USA

...

Latest news about this satellite

There are no fresh news available about this satellite. Check back as we update our databases every day.


Newsletter sign-up

Weekly statistics, charts and insights to help you stay on top of the space industry.